Location: Mainz-Finthen
(49.9906°N, 8.1713°E)
Time: 23:47:53
(UTC+00:00)

BEESAT - Pass Details

Date: 10 December 2021
Orbit: 699 x 708 km, 98.6° (Epoch: 25 January)

Event Time Altitude Azimuth Distance (km) Brightness Sun altitude
Rises 04:17:36 0° 104° (ESE) 3,098 ? -27.2°
Reaches altitude 10° 04:21:14 10° 75° (ENE) 2,186 ? -26.7°
Maximum altitude 04:23:04 12° 52° (NE) 2,041 ? -26.4°
Drops below altitude 10° 04:24:55 10° 29° (NNE) 2,193 ? -26.1°
Sets 04:28:34 0° 360° (N) 3,119 ? -25.5°
